Regional Weather Roundup
Issued by NWS Little Rock, AR

Home | Current Version | Previous Version | Graphics & Text | Print | Product List | Glossary On
Versions: 1 2 3 4 5 6 7 8 9 10 11 12 13 14 15 16 17 18 19 20 21 22 23 24 25 26 27 28 29 30 31 32 33 34 35 36 37 38 39 40 41 42 43 44 45 46 47 48 49 50
016
ASUS44 KLZK 190205
RWRLZK

WEATHER ROUNDUP FOR ARKANSAS
NATIONAL WEATHER SERVICE LITTLE ROCK AR
800 PM CST WED JAN 18 2017

NOTE: "FAIR" INDICATES FEW OR NO CLOUDS BELOW 12,000 FEET WITH NO
SIGNIFICANT WEATHER AND/OR OBSTRUCTIONS TO VISIBILITY.

ARZ001-003-010-029-190300-
NORTHWEST ARKANSAS

CITY           SKY/WX    TMP DP  RH WIND       PRES   REMARKS
FAYETTEVILLE   CLOUDY    47  47 100 E3        30.00F
FORT SMITH     CLOUDY    45  43  93 E9        30.03F
HARRISON       CLOUDY    42  41  96 SE7       30.04F
BENTONVILLE    CLOUDY   N/A N/A N/A SE3       30.00F
ROGERS         CLOUDY    44  44 100 E9        30.00F FOG
SILOAM SPGS    CLOUDY    46  45  93 SE5       30.00F
HIGHFILL       CLOUDY    47  46  97 SE5       30.00F FOG
SPRINGDALE     CLOUDY    46  46 100 E6        30.02F FOG
$$

ARZ004-005-016-190300-
NORTH CENTRAL ARKANSAS

CITY           SKY/WX    TMP DP  RH WIND       PRES   REMARKS
BATESVILLE     CLOUDY    45  41  87 E5        30.08F
FLIPPIN        CLOUDY    45  37  76 E3        30.04F
MTN HOME       CLOUDY    43  41  93 SE5       30.05F
$$

ARZ040-041-190300-
WEST CENTRAL ARKANSAS

CITY           SKY/WX    TMP DP  RH WIND       PRES   REMARKS
MENA           CLOUDY    46  46 100 E5        30.02F
MOUNT IDA      CLOUDY    47  46  97 CALM      30.00F FOG
$$

ARZ009-017-025-026-028-190300-
NORTHEAST ARKANSAS

CITY           SKY/WX    TMP DP  RH WIND       PRES   REMARKS
CORNING        CLOUDY    45  45 100 NE6       30.10F
JONESBORO      CLOUDY    46  42  86 E8        30.09S
NEWPORT        CLOUDY    46  44  93 MISG        N/A
WALNUT RIDGE   CLOUDY    45  39  81 NE6       30.10S
BLYTHEVILLE    CLOUDY    48  44  86 NE7       30.08F
$$

ARZ022-023-033-042-044-190300-
CENTRAL ARKANSAS

CITY           SKY/WX    TMP DP  RH WIND       PRES   REMARKS
LITTLE ROCK    CLOUDY    46  46 100 NE5       30.05R
N LITTLE ROCK    N/A     46  44  95 E6        30.05F
JACKSONVILLE   CLOUDY    47  47  97 NE6       30.03F
SEARCY         CLOUDY    48  45  89 NE9       30.06S
HOT SPRINGS    CLOUDY    48  47  96 E5        30.03S
RUSSELLVILLE   CLOUDY    47  42  83 CALM      30.05S
CLINTON        CLOUDY    46  43  87 CALM      30.05F
$$

ARZ036-190300-
EAST ARKANSAS

CITY           SKY/WX    TMP DP  RH WIND       PRES   REMARKS
WEST MEMPHIS   CLOUDY    50  49  96 E7        30.04F
$$

ARZ050-053-066-070-073-190300-
SOUTHWEST ARKANSAS

CITY           SKY/WX    TMP DP  RH WIND       PRES   REMARKS
ARKADELPHIA    CLOUDY    48  47  96 NE10      30.01F
CAMDEN         CLOUDY    50  48  93 CALM      30.01R
TEXARKANA      CLOUDY    49  49 100 NE7       30.01R FOG
EL DORADO      CLOUDY    53  52  96 CALM      29.99R
DE QUEEN       CLOUDY    50  50 100 E6        30.00S FOG
$$

ARZ056-057-069-190300-
SOUTHEAST ARKANSAS

CITY           SKY/WX    TMP DP  RH WIND       PRES   REMARKS
PINE BLUFF     CLOUDY    49  48  97 N8        30.02F
STUTTGART      CLOUDY    48  43  81 NE14      30.03F
MONTICELLO     LGT RAIN  52  51  97 E7        29.98F

$$






USA.gov is the U.S. government's official web portal to all federal, state and local government web resources and services.